"Pseudo-MPEC" for P21JVzM

Created 2023 Sep 21 11:22:31 UT using Find_Orb

Click here for an explanation of pseudo-MPECs

 
 Astrometry: 
     P21JVzM* C2023 09 185#hTO-kvPV.e6%n_+xo(Y9esS5r':-_];4j,0u=?`-xUFx:DGCW:F52
     P21JVzM  C2023 09 18.]3;M_vgFAstrometry[JaponZDeS*rQ9*.QQsF90YT]sP%?fO'\F52
     P21JVzM  C2023 09 18xOpB:J'2Ut*9(FEYskL)$gwredacted;1l=QuD3ts]pg-wS=r]V]F52
     P21JVzM 1C2023 09 19.00975 02 18 29.14 +00 53 49.4    ~9J0b 21.4 VXNEOCP033
     P21JVzM 1C2023 09 19.01073 02 18 28.80 +00 53 59.2    ~9J0b 20.8 VXNEOCP033
     P21JVzM 1C2023 09 19.01172 02 18 28.46 +00 54 09.4    ~9J0b 20.8 VXNEOCP033
     P21JVzM KC2023 09 19!4VF`_KAH,re]HcJv6-l#;DV2mhpPD*,jkF;fLry]UGGYw7fio[3H21
     P21JVzM KC2023 09 19%m)sclick\#Z^d$O0to68g5uv6vU3hvW]WDbKN5a(9Af#Epg?e#1H21
     P21JVzM KC2023 09 19-ma])7mq%i(FL%qn2\-hereSIdSsQL^/8Ey)_jP0J?8feeE7?:IVH21
     P21JVzM KC2023 09 19!W%ffor0Rq6jZN66'sPLI`explanationvhSb-bD7nmWKLC5$o%oH21
     P21JVzM 1C2023 09 19.34266602 16 43.774+01 50 14.03   ~9J97 20.24GVNEOCPG96
     P21JVzM 1C2023 09 19.34786902 16 41.981+01 51 06.84   ~9J97 20.51GVNEOCPG96
     P21JVzM 1C2023 09 19.35305602 16 40.206+01 51 59.08   ~9J97 20.72GVNEOCPG96
     P21JVzM 1C2023 09 19.35825502 16 38.384+01 52 52.50   ~9J97 20.36GVNEOCPG96
     P21JVzM 1C2023 09 21.14126 02 06 46.46 +06 57 26.3    ~9L3q 20.2 VXNEOCP033
     P21JVzM 1C2023 09 21.14265 02 06 45.96 +06 57 40.7    ~9L3q 21.7 VXNEOCP033
     P21JVzM 1C2023 09 21.14403 02 06 45.46 +06 57 55.0    ~9L3q 20.4 VXNEOCP033

Station data:
(033) Karl Schwarzschild Observatory, Tautenburg  (N50.980137 E11.711240)
   Germany.  Observer B. Stecklum. 1.34-m f/3 Schmidt + CCD.
(F52) Pan-STARRS 2, Haleakala  (N20.707382 W156.255910)  US/Hawaii.
   Observers J. Bulger, T. Dukes, T. Lowe, A. Schultz, M. Willman. Measurers
   K. Chambers, S. Chastel, T. de Boer, L. Denneau, J. Fairlamb, H.
   Flewelling, M. Huber, C.-C. Lin, E. Magnier, Y. Ramanjooloo, R. Wainscoat,
   R. Weryk. 1.8-m Ritchey-Chrétien + CCD.
(G96) Mt. Lemmon Survey  (N32.442751 W110.788720)  US/Arizona.  Observer E.
   J. Christensen. 1.5-m reflector + 10K CCD.
(H21) Astronomical Research Observatory, Westfield  (N39.483054 W87.968270)
   US/Illinois.  Observer R. Holmes. Measurers S. Foglia, L. Buzzi, T.
   Linder, R. Holmes. 0.76-m f/3.0 astrograph + CCD0.81-m f/4.0 astrograph +
   CCD0.61-m f/4.5 astrograph + CCD0.40-m f/5.32 astrograph + CCD.

Orbital elements:  P21JVzM
   Perihelion 2023 Aug 27.29723 +/- 0.12 TT =  7:08:00 (JD 2460183.79723)
Epoch 2023 Sep 21.0 TT = JDT 2460208.5   Earth MOID: 0.1016   Ma: 0.0050
M  14.87588395 +/- 0.16             (J2000 ecliptic)             AutoNEOCP
n   0.60219488 +/- 0.00394          Peri.  334.85680 +/- 0.11
a   1.38881588 +/- 0.00605          Node     2.57021 +/- 0.022
e   0.2161598 +/- 0.00288           Incl.   21.89211 +/- 0.15
P   1.64/597.80d           H 24.11  G  0.15   U  9.0
q 1.08860962 +/- 0.000749    Q 1.68902215 +/- 0.0114
From 17 observations 2023 Sept. 18-21; mean residual 0".34
Residuals in arcseconds: 
230918 F52  .06-  .39+    230919 H21  .63-  .35+    230919 G96  .01+  .33-    
230918 F52  .15+  .03-    230919 H21  .33-  .26+    230919 G96  .45-  .33+    
230918 F52  .05+  .14-    230919 H21  .24-  .20+    230921 033  .22+  .02-    
230919 033  .29+  .86-    230919 H21  .08-  .35+    230921 033  .17+  .04+    
230919 033  .10+  .94-    230919 G96  .07-  .05+    230921 033  .07+  .11+    
230919 033  .04-  .72-    230919 G96  .14-  .07+    

Ephemerides (geocentric):
Date (UTC) HH   RA             Dec           delta  r     elong  mag " sig PA
---- --------  ------------   ------------  ------ ------ -----  --- --------
2023 09 21 11  02 04 59.512   +07 52 55.12  .11994 1.1054 145.8 21.0 .279  25
2023 09 21 12  02 04 45.173   +08 00 05.95  .11993 1.1054 145.9 21.0 .269  27
2023 09 21 13  02 04 30.816   +08 07 16.79  .11992 1.1055 145.9 21.0 .258  30
2023 09 21 14  02 04 16.441   +08 14 27.63  .11991 1.1055 146.0 21.0 .248  32
2023 09 21 15  02 04 02.046   +08 21 38.48  .11990 1.1056 146.1 21.0 .239  35
2023 09 21 16  02 03 47.634   +08 28 49.32  .11989 1.1056 146.1 21.0 .229  39
2023 09 21 17  02 03 33.202   +08 36 00.15  .11989 1.1057 146.2 21.0 .221  42
2023 09 21 18  02 03 18.753   +08 43 10.96  .11988 1.1057 146.3 21.0 .212  46
2023 09 21 19  02 03 04.285   +08 50 21.75  .11987 1.1058 146.3 21.0 .205  51
2023 09 21 20  02 02 49.798   +08 57 32.50  .11987 1.1059 146.4 21.0 .199  55
2023 09 21 21  02 02 35.294   +09 04 43.22  .11987 1.1059 146.5 21.0 .194  61
2023 09 21 22  02 02 20.771   +09 11 53.90  .11986 1.1060 146.5 21.0 .191  66
2023 09 21 23  02 02 06.230   +09 19 04.53  .11986 1.1060 146.6 21.0 .190  72
2023 09 22 00  02 01 51.671   +09 26 15.11  .11986 1.1061 146.7 21.0 .191  78
2023 09 22 01  02 01 37.093   +09 33 25.62  .11986 1.1061 146.7 21.0 .193  84
2023 09 22 02  02 01 22.498   +09 40 36.07  .11986 1.1062 146.8 21.0 .198  90
2023 09 22 03  02 01 07.885   +09 47 46.45  .11986 1.1062 146.9 21.0 .205  96
2023 09 22 04  02 00 53.253   +09 54 56.75  .11986 1.1063 146.9 21.0 .214 101
2023 09 22 05  02 00 38.604   +10 02 06.96  .11986 1.1064 147.0 21.0 .225 106
2023 09 22 06  02 00 23.937   +10 09 17.09  .11986 1.1064 147.1 21.0 .238 111
2023 09 22 07  02 00 09.252   +10 16 27.11  .11987 1.1065 147.1 21.0 .252 115
2023 09 22 08  01 59 54.550   +10 23 37.04  .11987 1.1065 147.2 21.0 .268 119
2023 09 22 09  01 59 39.830   +10 30 46.85  .11988 1.1066 147.2 21.0 .285 122
2023 09 22 10  01 59 25.092   +10 37 56.55  .11988 1.1066 147.3 21.0 .304 125
2023 09 22 11  01 59 10.336   +10 45 06.13  .11989 1.1067 147.4 21.0 .323 128
2023 09 22 12  01 58 55.563   +10 52 15.58  .11990 1.1067 147.4 21.0 .344 130
2023 09 22 13  01 58 40.773   +10 59 24.90  .11990 1.1068 147.5 21.0 .365 133
2023 09 22 14  01 58 25.965   +11 06 34.08  .11991 1.1069 147.5 21.0 .388 135
2023 09 22 15  01 58 11.140   +11 13 43.11  .11992 1.1069 147.6 21.0 .411 136
2023 09 22 16  01 57 56.298   +11 20 51.99  .11993 1.1070 147.7 21.0 .435 138
2023 09 22 17  01 57 41.438   +11 28 00.72  .11994 1.1070 147.7 21.0 .460 140
2023 09 22 18  01 57 26.561   +11 35 09.28  .11995 1.1071 147.8 21.0 .485 141
2023 09 22 19  01 57 11.667   +11 42 17.67  .11997 1.1071 147.8 21.0 .511 142
2023 09 22 20  01 56 56.756   +11 49 25.89  .11998 1.1072 147.9 21.0 .538 143
2023 09 22 21  01 56 41.827   +11 56 33.92  .11999 1.1073 148.0 21.0 .565 144
2023 09 22 22  01 56 26.882   +12 03 41.77  .12001 1.1073 148.0 21.0 .593 145
2023 09 22 23  01 56 11.920   +12 10 49.42  .12002 1.1074 148.1 21.0 .621 146
2023 09 23 00  01 55 56.941   +12 17 56.87  .12004 1.1074 148.1 21.0 .650 147
2023 09 23 01  01 55 41.945   +12 25 04.12  .12005 1.1075 148.2 21.0 .680 148
2023 09 23 02  01 55 26.933   +12 32 11.16  .12007 1.1075 148.2 21.0 .710 149
2023 09 23 03  01 55 11.904   +12 39 17.98  .12009 1.1076 148.3 21.0 .741 149
2023 09 23 04  01 54 56.858   +12 46 24.57  .12011 1.1077 148.3 21.0 .772 150
2023 09 23 05  01 54 41.795   +12 53 30.94  .12013 1.1077 148.4 21.0 .804 151
2023 09 23 06  01 54 26.717   +13 00 37.07  .12015 1.1078 148.4 21.0 .836 151
2023 09 23 07  01 54 11.621   +13 07 42.95  .12017 1.1078 148.5 21.0 .868 152
2023 09 23 08  01 53 56.510   +13 14 48.59  .12019 1.1079 148.5 21.0 .902 152
2023 09 23 09  01 53 41.382   +13 21 53.98  .12021 1.1080 148.6 21.0 .935 153
2023 09 23 10  01 53 26.237   +13 28 59.11  .12023 1.1080 148.6 21.0 .969 153